Voltar ao catálogo

TIMATION 2

AtivoNavegaçãoLEO
NORAD 4257·PAYLOAD·🇺🇸 United States

Lançado Sep 30, 1969 de Vandenberg Space Force Base

Loading…

Próximas Passagens (próximas 24 horas)

TLE

AtualizadoSource: Space-Track

Época: Sep 14, 2026, 10:52 UTC

1 04257U 69082C   26257.45323098  .00000026  00000-0  56897-4 0  9996
2 04257  70.0123 260.7294 0020570 357.9527  75.4575 13.96395779899115

Acompanhe TIMATION 2 em tempo real com AllMySat

Download on the App Store